Snowfall_Accumulation
0.0 0.0 0.0 0.0 0.0 0.0 0.0 0.0 0.0 0.0 0.0 0.0 0.0 0.0 0.0 0.0 0.0 0.0 0.0 0.0 0.0 0.0
0.0 0.0 0.0 0.0 0.0 0.0 0.0 0.0 0.0 0.0 0.0 0.0 0.0 0.0 0.0 0.0 0.0 0.0 0.0 0.0 0.0 0.0
0.1 0.1 0.1 0.1 0.1 0.1 0.0 0.0 0.0 0.0 0.0 0.0 0.0 0.0 0.0 0.0 0.0 0.0 0.0 0.0 0.0 0.0
0.9 0.2 0.1 0.1 0.6 0.5 0.4 0.0 0.0 0.0 0.0 0.0 0.0 0.0 0.0 0.0 0.0 0.0 0.0 0.0 0.0 0.0
2.3 2.2 1.2 1.2 1.0 1.2 0.6 0.0 0.0 0.0 0.0 0.0 0.0 0.0 0.0 0.0 0.0 0.0 0.0 0.0 0.0 0.0
5.1 3.9 4.8 4.7 3.2 2.4 1.7 1.3 0.6 0.0 0.0 0.0 0.0 0.0 0.0 0.0 0.0 0.0 0.0 0.0 0.0 0.0
9.5 11.3 9.2 6.9 7.8 7.5 3.9 2.9 1.4 0.5 0.0 0.0 0.0 0.0 0.0 0.0 0.0 0.0 0.0 0.0 0.0 0.0
10.5 10.7 10.8 10.7 14.3 12.2 10.0 9.5 3.6 2.1 0.0 0.0 0.0 0.0 0.0 0.0 0.0 0.0 0.0 0.0 0.0 0.0
0.0 0.3 3.6 4.7 5.2 4.0 8.1 11.2 6.1 5.6 1.6 0.7 0.4 3.2 0.8 0.4 0.0 0.0 0.0 0.0 0.0 0.0
0.0 0.0 0.0 0.2 0.0 1.2 0.6 1.0 1.1 1.1 0.5 0.1 1.2 0.7 0.0 0.0 0.2 0.5 0.0 0.0 0.0 0.0
0.0 0.0 0.0 0.0 0.0 0.0 0.0 0.1 0.0 0.2 0.2 0.2 0.2 0.1 0.1 0.0 0.2 0.5 1.1 1.2 0.7 0.0
1.0 0.0 0.0 0.0 0.0 0.0 0.0 0.0 0.0 0.0 0.1 0.1 0.1 0.0 0.0 0.0 0.1 0.0 0.2 0.2 0.2 0.2
3.8 3.7 3.3 2.0 3.6 1.3 0.0 0.3 0.0 0.1 0.0 0.3 0.1 0.0 0.0 0.0 0.0 0.1 0.1 0.1 0.0 0.1
6.6 7.4 8.2 5.8 7.9 8.6 4.4 1.4 1.6 1.4 0.0 2.0 2.4 2.3 1.0 1.7 2.1 0.8 0.9 0.1 0.1 0.1